Location: Bradley Quarters
(33.5209°N, 92.1411°W)
Time: 07:15:39
(UTC+00:00)

X-37B - Visible Passes

Search period start: 04 March 2021 00:00
Search period end: 14 March 2021 00:00
Orbit: 383 x 391 km, 45.0° (Epoch: 27 February)

Date Brightness Start Highest point End Pass type
(mag) Time Alt. Az. Time Alt. Az. Time Alt. Az.
04 Mar 1.4 10:52:49 49° ESE 10:52:49 49° ESE 10:55:13 10° ESE visible
05 Mar 2.2 11:30:01 20° SW 11:30:08 20° SW 11:32:30 10° S visible
09 Mar 2.5 01:06:01 10° S 01:08:05 16° SE 01:08:11 16° SE visible
10 Mar 0.9 01:42:54 10° SW 01:45:35 58° SSW 01:45:35 58° SSW visible
11 Mar 1.4 00:44:52 10° SSW 00:47:48 34° SE 00:50:31 11° ENE visible
11 Mar 3.5 02:21:38 10° W 02:22:51 18° WNW 02:22:51 18° WNW visible
12 Mar 1.3 01:22:52 10° WSW 01:25:59 50° NNW 01:27:38 24° NE visible
13 Mar 3.0 02:02:10 10° WNW 02:04:31 18° NNW 02:04:37 18° NNW visible
